RH
96 97 98 96 95 94 92 91 89 83 77 67 58 56 58 59 62 63 62 62 62 61 60 59 58 57 56
100 99 100 99 97 98 91 78 75 62 56 54 54 58 61 59 56 58 61 62 62 61 61 60 60 58 58
99 99 99 99 99 96 86 76 57 54 52 49 48 50 52 55 58 61 62 63 63 63 63 62 62 62 61
99 99 99 96 93 88 82 71 70 47 49 50 52 53 52 54 55 56 58 58 59 60 61 61 62 61 60
100 98 94 85 85 80 81 72 76 72 72 74 70 73 70 62 58 54 55 56 57 58 60 59 60 62 64
97 90 80 71 70 82 96 91 90 76 80 74 75 73 75 72 59 56 56 56 57 60 61 59 59 60 60
86 79 73 74 89 92 85 94 95 84 81 84 78 75 76 55 58 58 58 60 62 63 63 63 63 62 60
77 76 74 74 76 89 91 91 88 83 82 95 82 78 70 78 65 62 63 64 62 60 61 63 62 62 61
55 54 54 59 63 84 96 96 95 91 82 92 91 94 83 73 74 67 59 60 63 65 65 64 64 63 63
68 67 60 64 50 72 93 96 98 95 91 95 98 97 97 97 92 83 80 73 68 68 68 67 66 63 70
74 70 67 71 73 75 79 94 97 86 80 88 100 97 93 89 96 93 82 84 79 76 74 73 73 72 83
70 86 88 95 93 90 84 90 92 92 94 96 98 97 96 92 90 87 87 83 87 89 89 82 79 76 72
94 96 97 89 87 86 83 89 92 92 90 90 95 95 97 95 93 87 83 81 84 90 95 91 91 87 92
96 97 97 92 89 91 93 92 94 91 88 88 92 97 96 94 95 92 85 93 85 87 87 87 85 85 88
97 84 82 84 87 90 92 94 96 89 88 88 90 88 88 93 95 87 87 87 86 86 87 90 86 87 86
88 85 89 91 90 92 94 96 96 91 87 86 91 92 90 86 83 93 90 90 88 88 90 94 88 82 78
90 95 95 95 88 93 93 94 93 91 91 91 95 95 95 92 74 67 85 85 84 86 86 89 92 86 79
Wind_Speed
1 1 2 9 5 1 3 4 4 14 14 16 17 14 16 17 18 19 20 20 20 19 19 20 20 21 21
3 4 2 3 2 4 5 7 7 12 13 16 14 15 16 18 17 18 19 19 19 19 19 20 21 21 22
3 2 2 2 3 5 5 6 5 11 13 12 13 14 16 17 17 17 17 18 19 19 20 20 21 22 22
3 2 2 3 3 3 4 3 3 2 6 11 15 14 15 15 16 17 18 18 18 18 18 19 20 21 22
2 2 3 3 3 3 3 1 2 2 3 3 3 3 5 12 13 17 17 17 18 18 19 21 21 21 22
1 2 1 1 0 2 1 2 3 2 3 5 3 5 5 4 14 17 17 17 18 19 20 21 22 22 23
1 1 2 1 3 1 0 2 3 4 3 7 3 6 5 6 15 18 19 19 20 19 19 20 20 21 22
1 2 1 2 1 3 3 3 3 3 3 5 1 5 6 4 15 19 17 15 15 17 18 19 20 21 23
3 6 8 9 7 1 2 2 3 2 2 2 3 4 5 8 6 12 11 14 21 21 20 20 21 23 16
4 4 6 5 9 4 4 3 2 4 3 2 3 2 5 3 2 4 6 12 20 21 22 21 21 10 9
3 3 3 3 2 2 3 4 3 6 6 3 1 3 3 6 3 3 7 6 7 11 18 21 20 16 8
2 2 2 1 2 3 4 3 3 6 3 1 5 4 7 10 10 5 6 9 8 8 7 13 19 20 21
2 2 2 3 4 5 7 8 8 9 8 8 8 9 8 9 11 11 13 9 10 8 5 7 8 8 9
2 2 2 4 4 3 4 4 6 7 7 7 9 10 9 10 10 12 10 9 9 10 9 9 9 10 11
1 4 5 5 5 4 4 5 7 9 9 6 7 9 9 12 12 12 12 11 10 11 12 11 10 10 11
4 6 6 6 6 5 5 5 7 8 9 8 7 7 8 11 20 13 11 12 10 9 9 11 12 9 10
5 5 5 5 9 6 6 6 8 8 8 7 7 8 11 12 8 16 11 9 11 11 10 10 12 11 10
Wind_Direction
161 215 175 153 170 108 266 261 255 265 268 269 274 282 289 287 290 290 290 289 287 284 284 284 284 283 284
121 197 169 169 162 211 232 241 233 249 261 267 280 283 281 282 288 288 286 284 284 283 283 285 286 285 286
136 109 82 149 192 231 227 235 247 257 270 283 293 297 294 289 287 285 284 285 286 287 287 287 286 284 284
71 116 143 187 182 218 253 239 244 263 307 297 292 290 292 296 293 295 292 287 284 281 279 278 276 277 279
111 167 174 179 190 214 213 283 326 253 286 293 283 292 292 291 289 290 287 286 286 285 283 281 280 279 276
191 178 230 219 53 81 117 49 326 350 359 296 273 277 266 259 275 288 292 295 293 290 286 284 281 279 278
243 276 7 66 132 79 98 196 227 273 294 281 219 266 257 277 292 293 294 297 294 292 290 285 283 280 278
89 349 348 352 72 174 204 246 275 266 246 273 191 285 292 274 285 294 295 294 293 293 293 289 284 282 279
277 286 289 289 275 87 318 34 305 270 254 244 307 311 291 287 269 274 294 311 305 300 294 292 292 290 284
326 325 318 278 272 202 168 180 238 327 317 51 346 7 317 280 311 315 285 291 302 302 297 294 293 290 282
288 295 302 306 282 279 206 155 193 254 269 322 261 299 260 297 284 291 295 295 298 295 296 296 294 286 274
315 314 304 305 307 345 331 300 281 280 291 272 277 287 284 290 290 307 298 296 283 282 283 286 291 287 287
305 288 302 335 312 303 289 270 255 252 259 250 249 266 259 266 276 286 293 294 284 276 272 271 279 280 283
257 261 303 329 302 289 281 280 276 271 250 250 241 242 262 258 263 275 278 280 289 285 277 273 270 262 260
329 308 301 300 297 301 292 288 275 286 285 261 241 246 250 259 272 270 279 277 272 276 279 275 267 259 259
314 303 298 296 297 286 272 274 280 282 286 286 279 277 268 258 239 265 267 270 271 263 258 273 278 272 262
288 271 280 284 299 282 274 272 275 275 276 280 279 278 281 281 284 258 270 275 283 280 275 271 274 273 271